Regional Weather Roundup
Issued by NWS Newport/Morehead, NC

Current Version | Previous Version | Text Only | Print | Product List | Glossary On
Versions: 1 2 3 4 5 6 7 8 9 10 11 12 13 14 15 16 17 18 19 20 21 22 23 24 25 26 27 28 29 30 31 32 33 34 35 36 37 38 39 40 41 42 43 44 45
000
ASUS42 KMHX 220013
RWRMHX
WEATHER ROUNDUP FOR EASTERN NORTH CAROLINA
NATIONAL WEATHER SERVICE NEWPORT/MOREHEAD CITY NC
800 PM EDT SAT APR 21 2018

NOTE: "FAIR" INDICATES FEW OR NO CLOUDS BELOW 12,000 FEET
WITH NO SIGNIFICANT WEATHER AND/OR OBSTRUCTIONS TO VISIBILITY

NCZ015>017-031-032-045>047-102-103-220100-
NORTH COAST

CITY           SKY/WX    TMP DP  RH WIND       PRES   REMARKS
EDENTON        FAIR      54  45  72 E7        30.39R
ELIZABETH CITY FAIR      50  36  58 E7        30.39R
KITTY HAWK     FAIR      47  36  63 E3        30.39R
MANTEO         FAIR      47  37  66 SE6       30.42R

$$

NCZ045>047-081-094-103-104-220100-
CENTRAL COAST

CITY           SKY/WX    TMP DP  RH WIND       PRES   REMARKS
FRISCO         FAIR      50  42  74 NE5       30.40R

$$

NCZ095-097-098-100-101-220100-
SOUTHERN COAST

CITY           SKY/WX    TMP DP  RH WIND       PRES   REMARKS
BEAUFORT       FAIR      56  40  55 SE8       30.37S
CEDAR ISLAND   NOT AVBL
JACKSONVILLE   FAIR      57  39  51 SE7       30.36R
PINEY ISLAND   NOT AVBL
WILMINGTON     FAIR      59  41  51 E7        30.36R


$$

NCZ011>013-027>030-043-044-078>080-089-090>093-098-220100-
COASTAL PLAIN

CITY           SKY/WX    TMP DP  RH WIND       PRES   REMARKS
AHOSKIE        NOT AVBL
CLINTON        FAIR      63  41  43 CALM      30.34R
ELIZABETHTOWN  FAIR      63  32  31 MISG      30.33R
GOLDSBORO      CLEAR     61  40  45 E3        30.32S
GREENVILLE     FAIR      59  37  44 CALM      30.36R
HAVELOCK       CLEAR     56  40  55 SE5       30.38R
KENANSVILLE    FAIR      59  39  47 SE3       30.35R
KINSTON        FAIR      59  39  47 S8        30.35S
NEW BERN       FAIR      57  40  52 S5        30.37R
RICHLANDS      FAIR      57  40  52 E3        30.36S
ROCKY MOUNT    FAIR      57  40  52 SE3       30.34S
WASHINGTON     FAIR      55  43  63 E6        30.37R
WHITEVILLE     FAIR      62  40  44 CALM      30.33R

$$

AMZ130-135-150-152-154-156-158-170-250-252-270-ANZ085-086-088-633-658-670-220100-
MARINE OBSERVATIONS

STATION/POSITION TIME  TEMP    WIND        PRES    WAVE   SWELL
                       AIR SEA DIR/SP/G            HT/PER HT/PER
                 (UTC) (F)     (DEG/KT/KT) (MB)    (FT/S) (FT/S)
CHESAPEAKE LIGHT NOT AVBL
64 E VA BEACH    2350   47 49   90/  6/  8 1030.1    2/ 6   2/ 6
DUCK             2336   49 53   70/ 15/ 18 1028.5
2 E DUCK         0000      52                N/A     2/ 6
OREGON INLET     2336   49 56   60/  8/ 10 1029.3
13E OREGON INLT  2348      51                N/A     3/ 5   2/ 5
HATTERAS CG      2336   53 61   80/  4/  7 1028.9
DIAMOND BUOY     2350   58 73   50/  8/ 12 1029.0    3/ 7   3/ 7
CAPE LOOKOUT     0000           90/ 11/ 12 1028.6
BEAUFORT LAB     2336   58 63  100/  5/  9 1028.5
30 SE NEW RVR IN 2308   61 66   90/ 10/ 14 1028.0
30 SE NEW RVR IN 0000      66                N/A     3/ 6
27 SE WRIGHTSVLE 2308   63 66   90/ 12/ 17 1027.8
5 SE WRIGHTSVLE  2308   61 60  110/ 10/ 14 1027.5
225 S CAPE HAT   0000   65 72   60/ 12/ 16 1026.1
41 SE CHARLESTON 0000   66 67   70/ 16/ 19 1025.8

$$




USA.gov is the U.S. government's official web portal to all federal, state and local government web resources and services.